Weather History for Ft Pierce, FL

Change the Weather History Date:

Monday, April 8, 2013

  Actual Average Record
Temperature  
Mean Temperature 66 °F -  
Max Temperature 81 °F 81 °F 91 °F (1939)
Min Temperature 53 °F 59 °F 41 °F (2009)
Cooling Degree Days 2    
Growing Degree Days 16 (Base 50)    
Moisture  
Dew Point 59 °F    
Average Humidity 74    
Maximum Humidity 94    
Minimum Humidity 48    
Precipitation  
Precipitation 0.00 in - - ()
Sea Level Pressure  
Sea Level Pressure 30.12 in    
Wind  
Wind Speed 3 mph (East)    
Max Wind Speed 13 mph    
Max Gust Speed 17 mph    
Visibility 9 miles    
Events      
Averages and records for this station are not official NWS values.
T = Trace of Precipitation, MM = Missing Value Source: NWS Daily Summary

Daily Weather History Graph

Daily Weather History Graph

Search for Another Location

Airport:

Trip Planner

Search our weather history database for the weather conditions in past years. The results will help you decide how hot, cold, wet, or windy it might be!

Date:

Astronomy

Apr. 08, 2013 Rise Set
Actual Time 7:04 AM EDT 7:42 PM EDT
Civil Twilight 6:40 AM EDT 8:06 PM EDT
Nautical Twilight 6:12 AM EDT 8:34 PM EDT
Astronomical Twilight 5:44 AM EDT 9:02 PM EDT
Moon 5:45 AM EDT (4/8) 6:20 PM EDT (4/8)
Length of Visible Light 13h 26m
Length of Day
12h 38m
Waning Crescent, 3% of the Moon is Illuminated
Apr 8
Waning Crescent
Apr 10
New
Apr 18
First Quarter
Apr 25
Full
May 2
Last Quarter

Hourly Weather History & Observations

Time (EDT) Temp. Heat Index Dew Point Humidity Pressure Visibility Wind Dir Wind Speed Gust Speed Precip Events Conditions
12:53 AM 66.9 °F - 60.1 °F 79% 30.12 in 10.0 mi ESE 4.6 mph - N/A   Clear
1:53 AM 59.0 °F - 55.9 °F 90% 30.11 in 10.0 mi Calm Calm - N/A   Clear
2:53 AM 57.9 °F - 55.0 °F 90% 30.09 in 10.0 mi Calm Calm - N/A   Clear
3:53 AM 55.9 °F - 54.0 °F 93% 30.08 in 9.0 mi Calm Calm - N/A   Clear
4:53 AM 55.9 °F - 53.1 °F 90% 30.07 in 6.0 mi Calm Calm - N/A   Clear
5:53 AM 57.0 °F - 55.0 °F 93% 30.08 in 10.0 mi Calm Calm - N/A   Clear
6:53 AM 54.0 °F - 52.0 °F 93% 30.09 in 9.0 mi Calm Calm - N/A   Clear
7:06 AM 53.6 °F - 51.8 °F 94% 30.10 in 1.8 mi Calm Calm - N/A   Clear
7:15 AM 53.6 °F - 51.8 °F 94% 30.10 in 3.0 mi Calm Calm - N/A   Clear
7:53 AM 57.9 °F - 55.9 °F 93% 30.12 in 8.0 mi Calm Calm - N/A   Clear
8:53 AM 68.0 °F - 63.0 °F 84% 30.14 in 10.0 mi Calm Calm - N/A   Mostly Cloudy
9:53 AM 75.9 °F - 60.1 °F 58% 30.15 in 10.0 mi East 6.9 mph - N/A   Scattered Clouds
10:53 AM 78.1 °F - 59.0 °F 52% 30.15 in 10.0 mi ESE 10.4 mph - N/A   Scattered Clouds
11:53 AM 78.1 °F - 60.1 °F 54% 30.15 in 10.0 mi East 6.9 mph - N/A   Scattered Clouds
12:53 PM 79.0 °F - 60.1 °F 52% 30.15 in 10.0 mi East 9.2 mph - N/A   Partly Cloudy
1:53 PM 80.1 °F 80.7 °F 59.0 °F 48% 30.13 in 10.0 mi East 8.1 mph 16.1 mph N/A   Partly Cloudy
2:53 PM 80.1 °F 80.7 °F 59.0 °F 48% 30.11 in 10.0 mi ESE 11.5 mph 17.3 mph N/A   Partly Cloudy
3:53 PM 79.0 °F - 57.9 °F 48% 30.10 in 10.0 mi East 9.2 mph 16.1 mph N/A   Clear
4:53 PM 79.0 °F - 59.0 °F 50% 30.09 in 10.0 mi East 10.4 mph - N/A   Partly Cloudy
5:53 PM 75.9 °F - 63.0 °F 64% 30.09 in 10.0 mi East 12.7 mph - N/A   Partly Cloudy
6:53 PM 75.0 °F - 61.0 °F 62% 30.11 in 10.0 mi ENE 8.1 mph - N/A   Clear
7:53 PM 72.0 °F - 62.1 °F 71% 30.12 in 10.0 mi ENE 3.5 mph - N/A   Partly Cloudy
8:53 PM 72.0 °F - 64.0 °F 76% 30.12 in 10.0 mi ENE 4.6 mph - N/A   Mostly Cloudy
9:53 PM 70.0 °F - 64.0 °F 81% 30.13 in 10.0 mi East 3.5 mph - N/A   Clear
10:53 PM 69.1 °F - 64.0 °F 84% 30.14 in 10.0 mi ESE 3.5 mph - N/A   Clear
11:53 PM 64.9 °F - 62.1 °F 90% 30.15 in 10.0 mi Calm Calm - N/A   Clear